When you browse on this site, cookies collect data to enhance your experience and personalize the content and advertising you see.
Visit our Privacy Policy to learn more. By continuing to use the site, you agree to this use of cookies and data.
  • In Czech Republic
  • List of Countries
  • For 7 days
  • Water Temperature
  • Satellite Maps
  • Weather Map
  • Weather Widgets
  • user-avatar
    Login

    Hourly Weather Methuen

    Today, 18 April, Thursday

    Time Temperature Precipitation Wind Pressure Humidity
    00:00 +7°C° 0 mm 2 mps 764 mmHg 61%
    01:00 +6°C° 0 mm 2 mps 764 mmHg 65%
    02:00 +6°C° 0 mm 2 mps 764 mmHg 67%
    03:00 +5°C° 0 mm 2 mps 764 mmHg 69%
    04:00 +5°C° 0 mm 2 mps 764 mmHg 70%
    05:00 +6°C° 0 mm 2 mps 764 mmHg 67%
    06:00 +6°C° 0 mm 2 mps 764 mmHg 64%
    07:00 +7°C° 0 mm 2 mps 764 mmHg 61%
    08:00 +8°C° 0 mm 3 mps 764 mmHg 55%
    09:00 +8°C° 0 mm 3 mps 764 mmHg 50%
    10:00 +8°C° 0 mm 4 mps 763 mmHg 44%
    11:00 +8°C° 0 mm 4 mps 763 mmHg 47%
    12:00 +8°C° 0 mm 4 mps 763 mmHg 49%
    13:00 +10°C° 0 mm 4 mps 762 mmHg 51%
    14:00 +10°C° 0.1 mm 4 mps 761 mmHg 59%
    15:00 +10°C° 0.1 mm 4 mps 760 mmHg 67%
    16:00 +10°C° 0.1 mm 4 mps 760 mmHg 75%
    17:00 +10°C° 0.1 mm 4 mps 759 mmHg 80%
    18:00 +10°C° 0.1 mm 4 mps 758 mmHg 85%
    19:00 +11°C° 0.1 mm 3 mps 758 mmHg 90%
    20:00 +12°C° 0 mm 3 mps 757 mmHg 92%
    21:00 +12°C° 0 mm 3 mps 757 mmHg 94%
    22:00 +13°C° 0 mm 3 mps 756 mmHg 96%
    23:00 +13°C° 0 mm 3 mps 756 mmHg 95%

    Tomorrow, 19 April, Friday

    Time Temperature Precipitation Wind Pressure Humidity
    00:00 +13°C° 0 mm 3 mps 755 mmHg 94%
    01:00 +12°C° 0 mm 4 mps 755 mmHg 93%
    02:00 +13°C° 0 mm 4 mps 754 mmHg 92%
    03:00 +13°C° 0 mm 4 mps 754 mmHg 91%
    04:00 +14°C° 0 mm 4 mps 754 mmHg 90%
    05:00 +14°C° 0 mm 5 mps 754 mmHg 87%
    06:00 +15°C° 0 mm 5 mps 754 mmHg 84%
    07:00 +16°C° 0 mm 6 mps 754 mmHg 81%
    08:00 +17°C° 0 mm 6 mps 754 mmHg 77%
    09:00 +19°C° 0 mm 6 mps 754 mmHg 73%
    10:00 +20°C° 0 mm 7 mps 754 mmHg 69%
    11:00 +20°C° 0 mm 6 mps 754 mmHg 70%
    12:00 +20°C° 0 mm 6 mps 754 mmHg 71%
    13:00 +20°C° 0 mm 5 mps 754 mmHg 72%
    14:00 +21°C° 0 mm 6 mps 754 mmHg 72%
    15:00 +21°C° 0 mm 6 mps 753 mmHg 72%
    16:00 +21°C° 0 mm 7 mps 753 mmHg 72%
    17:00 +21°C° 0.2 mm 6 mps 753 mmHg 76%
    18:00 +20°C° 0.2 mm 6 mps 753 mmHg 79%
    19:00 +19°C° 0.2 mm 5 mps 753 mmHg 83%
    20:00 +19°C° 0.2 mm 5 mps 753 mmHg 84%
    21:00 +19°C° 0.2 mm 5 mps 753 mmHg 85%
    22:00 +20°C° 0.2 mm 5 mps 753 mmHg 86%
    23:00 +20°C° 0.2 mm 5 mps 753 mmHg 86%

    Day after tomorrow, 20 April, Saturday

    Time Temperature Precipitation Wind Pressure Humidity
    00:00 +20°C° 0.2 mm 5 mps 753 mmHg 87%
    01:00 +20°C° 0.2 mm 5 mps 752 mmHg 87%
    02:00 +20°C° 0.2 mm 5 mps 753 mmHg 88%
    03:00 +20°C° 0.2 mm 5 mps 753 mmHg 89%
    04:00 +20°C° 0.2 mm 5 mps 753 mmHg 89%
    05:00 +20°C° 0.1 mm 4 mps 753 mmHg 89%
    06:00 +20°C° 0.1 mm 4 mps 754 mmHg 89%
    07:00 +20°C° 0.1 mm 4 mps 754 mmHg 89%
    08:00 +20°C° 0.3 mm 4 mps 754 mmHg 89%
    09:00 +20°C° 0.3 mm 4 mps 754 mmHg 89%
    10:00 +20°C° 0.3 mm 4 mps 754 mmHg 89%
    11:00 +20°C° 1.6 mm 4 mps 755 mmHg 89%
    12:00 +20°C° 1.6 mm 4 mps 755 mmHg 89%
    13:00 +19°C° 1.6 mm 4 mps 755 mmHg 89%
    14:00 +19°C° 0.6 mm 4 mps 755 mmHg 87%
    15:00 +20°C° 0.6 mm 4 mps 755 mmHg 86%
    16:00 +20°C° 0.6 mm 3 mps 755 mmHg 85%
    17:00 +19°C° 0.2 mm 3 mps 755 mmHg 88%
    18:00 +19°C° 0.2 mm 3 mps 756 mmHg 91%
    19:00 +18°C° 0.2 mm 3 mps 756 mmHg 93%
    20:00 +18°C° 0.4 mm 3 mps 756 mmHg 92%
    21:00 +18°C° 0.4 mm 3 mps 757 mmHg 91%
    22:00 +18°C° 0.4 mm 3 mps 757 mmHg 90%
    23:00 +17°C° 0.1 mm 3 mps 757 mmHg 90%

    21 April, Sunday

    Time Temperature Precipitation Wind Pressure Humidity
    00:00 +17°C° 0.1 mm 2 mps 757 mmHg 91%
    01:00 +16°C° 0.1 mm 2 mps 757 mmHg 91%
    02:00 +16°C° 0.3 mm 1 mps 757 mmHg 90%
    03:00 +15°C° 0.3 mm 1 mps 757 mmHg 89%
    04:00 +15°C° 0.3 mm 1 mps 757 mmHg 88%
    05:00 +15°C° 0.2 mm 1 mps 757 mmHg 87%
    06:00 +14°C° 0.2 mm 1 mps 757 mmHg 85%
    07:00 +13°C° 0.2 mm 0 mps 758 mmHg 84%
    08:00 +15°C° 0 mm 1 mps 758 mmHg 82%
    09:00 +15°C° 0 mm 1 mps 758 mmHg 79%
    10:00 +16°C° 0 mm 2 mps 758 mmHg 77%
    11:00 +16°C° 0 mm 2 mps 758 mmHg 74%
    12:00 +17°C° 0 mm 3 mps 758 mmHg 71%
    13:00 +18°C° 0 mm 3 mps 758 mmHg 68%
    14:00 +19°C° 0 mm 3 mps 758 mmHg 63%
    15:00 +19°C° 0 mm 3 mps 758 mmHg 58%
    16:00 +20°C° 0 mm 3 mps 758 mmHg 53%
    17:00 +18°C° 0 mm 3 mps 758 mmHg 58%
    18:00 +17°C° 0 mm 3 mps 759 mmHg 62%
    19:00 +14°C° 0 mm 3 mps 759 mmHg 66%
    20:00 +14°C° 0 mm 2 mps 759 mmHg 70%
    21:00 +13°C° 0 mm 2 mps 760 mmHg 73%
    22:00 +12°C° 0 mm 2 mps 760 mmHg 76%
    23:00 +12°C° 0 mm 2 mps 760 mmHg 78%

    22 April, Monday

    Time Temperature Precipitation Wind Pressure Humidity
    00:00 +11°C° 0 mm 1 mps 760 mmHg 79%
    01:00 +10°C° 0 mm 1 mps 760 mmHg 81%
    02:00 +10°C° 0.3 mm 1 mps 760 mmHg 82%
    03:00 +9°C° 0.3 mm 2 mps 760 mmHg 84%
    04:00 +9°C° 0.3 mm 2 mps 760 mmHg 86%
    05:00 +11°C° 0.4 mm 1 mps 760 mmHg 86%
    06:00 +11°C° 0.4 mm 1 mps 761 mmHg 86%
    07:00 +12°C° 0.4 mm 1 mps 761 mmHg 86%
    08:00 +13°C° 0.1 mm 1 mps 761 mmHg 81%
    09:00 +14°C° 0.1 mm 1 mps 761 mmHg 77%
    10:00 +15°C° 0.1 mm 1 mps 761 mmHg 73%
    11:00 +16°C° 0 mm 1 mps 761 mmHg 66%
    12:00 +19°C° 0 mm 1 mps 761 mmHg 59%
    13:00 +21°C° 0 mm 1 mps 760 mmHg 52%
    14:00 +21°C° 0 mm 1 mps 760 mmHg 50%
    15:00 +21°C° 0 mm 1 mps 760 mmHg 49%
    16:00 +21°C° 0 mm 1 mps 760 mmHg 48%
    17:00 +20°C° 0 mm 1 mps 760 mmHg 54%
    18:00 +18°C° 0 mm 1 mps 760 mmHg 60%
    19:00 +16°C° 0 mm 1 mps 761 mmHg 66%
    20:00 +15°C° 0 mm 1 mps 761 mmHg 69%
    21:00 +15°C° 0 mm 2 mps 761 mmHg 72%
    22:00 +14°C° 0 mm 2 mps 761 mmHg 75%
    23:00 +14°C° 0 mm 2 mps 761 mmHg 77%

    23 April, Tuesday

    Time Temperature Precipitation Wind Pressure Humidity
    00:00 +13°C° 0 mm 2 mps 761 mmHg 79%
    01:00 +13°C° 0 mm 1 mps 761 mmHg 81%
    02:00 +13°C° 0 mm 1 mps 761 mmHg 82%
    03:00 +13°C° 0 mm 1 mps 761 mmHg 82%
    04:00 +12°C° 0 mm 1 mps 761 mmHg 82%
    05:00 +13°C° 0 mm 1 mps 761 mmHg 80%
    06:00 +14°C° 0 mm 1 mps 761 mmHg 77%
    07:00 +15°C° 0 mm 1 mps 761 mmHg 74%
    08:00 +18°C° 0 mm 1 mps 761 mmHg 67%
    09:00 +21°C° 0 mm 1 mps 760 mmHg 60%
    10:00 +24°C° 0 mm 1 mps 760 mmHg 54%
    11:00 +21°C° 0.2 mm 2 mps 760 mmHg 62%
    12:00 +19°C° 0.2 mm 2 mps 760 mmHg 71%
    13:00 +18°C° 0.2 mm 3 mps 760 mmHg 79%
    14:00 +17°C° 0.3 mm 3 mps 760 mmHg 81%
    15:00 +14°C° 0.3 mm 3 mps 761 mmHg 84%
    16:00 +13°C° 0.3 mm 4 mps 761 mmHg 86%
    17:00 +11°C° 0.1 mm 4 mps 762 mmHg 86%
    18:00 +10°C° 0.1 mm 4 mps 763 mmHg 85%
    19:00 +8°C° 0.1 mm 4 mps 764 mmHg 85%
    20:00 +7°C° 0.1 mm 4 mps 764 mmHg 85%
    21:00 +7°C° 0.1 mm 4 mps 765 mmHg 84%
    22:00 +7°C° 0.1 mm 4 mps 765 mmHg 84%
    23:00 +7°C° 0 mm 3 mps 766 mmHg 84%
    Show more